Location: Wayah Bald
(35.1806°N, 83.5603°W)
Time: 13:04:56
(UTC-05:00)

Daily predictions for brighter satellites

Satellite Brightness Start Highest point End
(mag) Time Altitude Azimuth Time Altitude Azimuth Time Altitude Azimuth
H-2A R/B 3.5 18:06:59 10° SW 18:09:14 27° S 18:15:00 10° ESE
ATLAS 3B CENTAUR R/B 3.3 18:15:45 10° WSW 18:17:39 14° SSW 18:19:04 10° S
Cosmos 1943 3.4 18:13:13 10° SSW 18:18:51 78° WNW 18:24:30 10° NNE
METEOR-M 4.2 18:13:54 10° SSE 18:19:06 56° ENE 18:24:21 10° N
NOSS 3-3 (A) 4.5 18:15:53 10° SW 18:21:47 60° NW 18:28:14 10° NNE
Cosmos 1726 2.2 18:18:16 10° N 18:21:51 51° E 18:25:24 10° SSE
NOSS 3-3 (C) 4.5 18:15:59 10° SW 18:21:53 61° NW 18:28:21 10° NNE
SeaSat 1 4.0 18:17:44 10° S 18:22:22 42° WSW 18:27:04 10° NW
MTI 4.3 18:20:09 10° NNE 18:23:10 38° E 18:26:11 10° S
Cosmos 1842 Rocket 4.2 18:20:42 10° NNW 18:25:05 61° W 18:29:24 10° S
BREEZE-M DEB (TANK) 4.4 18:22:16 10° NW 18:26:16 83° SW 18:41:55 10° SE
Cosmos 1076 Rocket 3.7 18:22:10 10° S 18:26:24 52° E 18:30:39 10° NNE
Cosmos 2084 3.2 18:24:45 10° NNW 18:28:34 88° SW 18:32:29 10° SSE
USA 116 4.5 18:27:35 10° N 18:31:50 68° WNW 18:36:36 10° SSW
CZ-2C R/B 3.9 18:27:08 10° N 18:31:52 78° WNW 18:36:29 10° SSW
Cosmos 44 3.9 18:28:18 10° S 18:32:02 30° ESE 18:35:34 11° NE
GPS 2-05 Rocket1 4.5 18:30:35 10° W 18:33:17 27° SSW 18:35:55 10° SE
EO 1 Del DPAF 3.5 18:34:10 10° NNE 18:37:52 45° E 18:41:32 10° S
SMAP 4.3 18:33:32 10° S 18:37:59 45° W 18:42:27 10° NNW
Cosmos 2341 Rocket 4.1 18:32:45 10° N 18:39:03 85° W 18:45:21 10° S
Meteor 2-10 3.9 18:36:47 10° N 18:41:50 75° E 18:46:56 10° SSE
Okean 3 Rocket 3.6 18:38:23 10° S 18:42:55 89° E 18:47:29 10° N
Ariane Rocket 4.2 18:40:03 10° S 18:44:52 46° W 18:49:45 10° NNW
Cosmos 1766 Rocket 3.8 18:41:01 10° SSE 18:45:08 46° E 18:49:17 10° NNE
CZ-4 R/B 2.6 18:42:51 10° S 18:46:54 48° W 18:51:01 10° NNW
SPOT 3 Rocket 3.6 18:43:15 10° SSE 18:48:12 51° ENE 18:53:12 10° N
Landsat 4 3.8 18:47:57 10° N 18:51:41 77° WNW 18:55:24 10° SSW
Cosmos 2263 4.2 18:46:13 10° NNW 18:52:01 83° ENE 18:57:44 10° SSE
Cosmos 44 Rocket 3.6 18:48:34 10° S 18:52:57 42° ESE 18:55:59 19° NE
OAO 3 Rocket 3.1 18:52:01 10° W 18:56:43 88° S 18:59:43 23° E
SKYMED 2 4.2 18:52:48 10° N 18:57:04 58° WNW 19:01:19 10° SSW
SL-14 R/B 3.8 18:54:19 10° SSW 18:58:16 63° W 19:02:14 10° N
Cosmos 864 Rocket 4.5 18:53:58 10° N 19:00:16 63° E 19:06:29 10° SSE
Cosmos 2369 Rocket 3.0 18:56:40 10° NNW 19:02:12 56° WSW 19:07:44 10° S
Cosmos 1626 2.1 18:59:13 10° S 19:02:51 55° E 19:05:54 14° NNE
YAOGAN 1 3.7 18:58:43 10° S 19:02:52 47° W 19:07:04 10° NNW
Cosmos 1300 3.0 19:04:04 10° NNW 19:07:52 68° W 19:11:39 10° S
GEOS 3 Rocket 4.3 19:06:07 23° E 19:08:31 34° NE 19:13:16 10° NNW
Cosmos 1777 Rocket 4.4 19:06:27 10° N 19:11:22 39° ENE 19:16:17 10° SE
Cosmos 332 Rocket 4.5 19:10:35 10° SSE 19:14:53 32° E 19:15:13 31° E
TSX-5 3.8 19:13:16 10° SW 19:16:21 55° WNW 19:18:05 24° N
Cosmos 1315 Rocket 3.5 19:14:00 10° SSW 19:17:51 54° W 19:21:43 10° N
Cosmos 1656 Rocket 3.7 19:12:50 10° N 19:18:09 50° ENE 19:23:31 10° SE
ERS-2 2.0 19:14:50 10° SSE 19:18:30 89° E 19:22:12 10° NNW
Cosmos 1943 Rocket 2.7 19:15:38 10° NNW 19:21:07 59° WSW 19:26:31 10° S
ALOS 3.1 19:17:22 10° S 19:21:54 51° W 19:26:26 10° NNW
Meteor 1-11 4.1 19:20:23 10° S 19:25:57 86° E 19:31:36 10° N
Meteor 1-27 4.2 19:20:35 10° N 19:26:13 58° E 19:31:53 10° SSE
Cosmos 1346 Rocket 3.3 19:23:46 10° N 19:30:20 18° SSE 19:31:27 10° SSE
Cosmos 2218 Rocket 4.4 19:22:37 10° NNW 19:28:42 63° W 19:34:43 10° S
Cosmos 2098 Rocket 3.7 19:24:03 10° N 19:29:14 65° E 19:35:42 10° SSE
ASTRO E2 3.6 19:34:33 10° SW 19:38:15 37° SSE 19:38:15 37° SSE
FengYun 1-2 T 4.2 19:36:11 10° SSE 19:41:50 87° WSW 19:47:29 10° NNW
COSMOS 2406 3.1 19:36:13 10° SSW 19:41:55 73° ESE 19:43:50 43° NE
H-2A R/B 3.2 19:39:41 10° S 19:43:23 58° W 19:47:10 10° NNW
Centaur D-1A AC-32 4.4 19:41:51 10° S 19:44:21 18° SSE 19:44:21 18° SSE
ATLAS 2AS CENTAUR R/B 4.3 19:39:23 10° NW 19:46:20 38° WSW 19:52:45 10° S
Cosmos 1500 Rocket 3.7 19:46:16 10° S 19:50:05 65° S 19:50:05 65° S
Cosmos 1570 Rocket 4.4 19:48:16 10° S 19:52:20 47° SSE 19:52:20 47° SSE
SL-24 R/B - RUBIN 2 4.2 19:49:21 10° NNW 19:52:33 46° NNW 19:52:33 46° NNW
Cosmos 2058 3.5 19:54:37 10° SSW 19:58:41 56° W 19:58:51 56° WNW
Cosmos 2151 3.5 19:57:14 10° SSW 20:01:20 57° W 20:01:20 57° W
Cosmos 371 Rocket 3.6 19:56:48 10° SSW 20:00:39 58° SSW 20:00:39 58° SSW
Cosmos 1743 Rocket 4.4 20:00:04 10° SSW 20:04:18 49° W 20:05:05 43° NW
Meteor 2-15 4.4 20:00:51 10° S 20:06:59 83° W 20:09:48 35° N
NOSS 3-4 (A) 3.7 20:02:04 10° NNW 20:09:16 89° ENE 20:12:08 43° SSE
NOSS 3-4 (C) 3.7 20:02:10 10° NNW 20:09:23 88° ENE 20:12:07 44° SSE
SEDSat Delta rocket 4.1 20:03:24 10° WSW 20:09:36 53° S 20:09:36 53° S
Thor Agena Rocket 4.3 20:10:58 30° NNW 20:13:19 52° WNW 20:18:22 10° SSW
Cosmos 1821 Rocket 4.0 20:09:22 10° N 20:19:31 24° S 20:21:47 10° S
